Showing default

COMSATBW-1, 35943

Orbit data source: Space-Track

COMSATBW-1, 35943 is a payload satellite owned by IT-AMTBw (DE) in GEO that was launched on Wed, 30 Sep 2009 UTC via an ARIANE 5ECA launch vehicle from the French Guiana (FRGUI). Payload-class satellites include a variety of spacecraft equipped with specific instruments for various scientific and technological missions. These include communications satellites like Starlink; space stations such as the ISS; scientific satellites like the Hubble; Earth observation satellites from companies like Planet Labs, Umbra, and HawkEye 360; GPS; miniature CubeSats for education and research; and military/defense satellites.

Not visible in the next 10 days
Identifier
35943, 2009-054B
Orbit
GEO
Country
Flag of DEDE / GER
Related business
Manufacturer
Thales Alenia
Mission
Operational Defense Communications
Bus & Motor
SPACEBUS 3000B2, S400
Mass
2,440 kg wet, 1,040 kg dry
Launch date (UTC)
2009-09-30 (17 years ago)
Launch vehicle
ARIANE 5ECA
Launch site
French Guiana (FRGUI)
Object type
Payload
Rocket body
Debris
Shape & HBR
Box + 2 Pan, 8.6 m
Radar Cross Section
14.113 m², Large (>1 m²)

Expand to show TLE details & history
Last TLE update: 21 hours ago

TLE from 21 hours ago
0 COMSATBW-1
1 35943U 09054B   26106.51225572  .00000000  00000-0  00000-0 0  9996
2 35943   0.0138 220.7853 0003669 177.5818  53.7728  1.00276302 60689
Epoch: 2026-04-16T12:17Z
TLE epoch observation values (Epoch: 2026-04-16T12:17:38.894Z)
Latitude
-0.03099°
Longitude
63.09499°
Altitude
35,775.674 km
Speed
3.075 km/s
True Right ascension
06h 08m 39s
True Declination
0° 01' 51"
Sunlit
Object was in daylight at epoch
Visualization orbit readout
Latitude
Unknown
Longitude
Unknown
Altitude
Unknown
Speed
Unknown
Apparent Right ascension
Unknown
Apparent Declination
Unknown
Sunlit
N/A
Visualization observer readout
Local Sidereal Time
15:55:42
Azimuth
Unknown
Elevation
Unknown
Doppler factor
Unknown
Orbital elements
Apogee altitude
35,801.869 km
Perigee altitude
35,770.929 km
Semi-major axis
42,164.536 km
Eccentricity
0.00037
Inclination
0.0138°
RAAN
220.7853°
Arg. of periapsis
177.5818°
True anomaly
53.80672°
Mean anomaly
53.7728°
Eccentric anomaly
53.78976°
Mean motion
0.25068 °/min
Orbital period
1,436.09 mins
BSTAR
0
Loading maneuver chart data...
Computing Atmospheric mass density...
Loading historical data...
Loading historical data...
Loading historical data...
Loading historical data...
Loading historical data...
Loading historical data...
Loading historical data...
Other satellites on launch #54 in the year 2009 (2009-09-30 UTC)

Documentation

Showing up to 5 results
|